[[{"header":{"parameterUnit":"m.s-1","parameterCategory":1,"la1":30.2991,"la2":30.254,"lo1":-89.0895,"lo2":-89.0444,"dy":0.0017,"dx":0.0017,"nx":28,"ny":28,"refTime":"2024-08-25T21:00:00:Z","depth":0,"parameterNumber":2,"parameterNumberName":"U-component_of_WINDS"},"data":[0,0,0,0,0,0,0,0,0,0,0,0,0,0,0,0,0,0,0,0,0,0,0,0,0,0,0,0,0,0,0,0,0,0,0,0,0,0,0,0,0,0,0,0,0,0,0,0,0,0,0,0,0,0,0,0,0,0,-0.3286,-0.3288,0,-0.3491,-0.3493,-0.3496,-0.3589,-0.3589,-0.3588,-0.3588,-0.3804,-0.3809,-0.3815,0,0,0,0,0,0,0,0,0,0,0,0,0,-0.2978,-0.2983,-0.3285,-0.3288,-0.329,-0.3491,-0.3493,-0.3496,-0.3589,-0.3589,-0.3588,-0.3588,-0.3802,-0.3809,-0.3816,0,0,0,0,0,0,0,0,0,0,0,0,0,-0.3141,-0.2985,-0.3285,-0.3361,-0.3369,-0.349,-0.3494,-0.3497,-0.3589,-0.3589,-0.3588,-0.3588,-0.3799,-0.3808,-0.3817,-0.3879,0,0,-0.3844,-0.3848,0,0,0,0,0,0,0,0,-0.3131,-0.3152,-0.3347,-0.3356,-0.3366,-0.3514,-0.3464,-0.3625,-0.3589,-0.3506,-0.3588,-0.3588,-0.3708,-0.3724,-0.3764,-0.3889,-0.3898,-0.3845,-0.385,-0.3854,-0.3857,0,0,0,0,0,0,0,-0.312,-0.3143,-0.3367,-0.335,-0.3361,-0.3386,-0.3409,-0.3495,-0.3606,-0.3513,-0.352,-0.3543,-0.3713,-0.3755,-0.377,-0.3902,-0.3845,-0.3853,-0.3858,-0.3862,-0.409,-0.409,0,0,0,0,0,0,-0.3096,-0.3133,-0.336,-0.3373,-0.3245,-0.3392,-0.3417,-0.3467,-0.3606,-0.3626,-0.3543,-0.3547,-0.374,-0.3759,-0.3777,-0.386,-0.3854,-0.3862,-0.3868,-0.4089,-0.409,-0.4091,0,0,0,0,0,0,-0.3089,-0.3115,-0.3352,-0.3255,-0.3287,-0.3398,-0.3452,-0.3471,-0.3513,-0.3628,-0.3649,-0.3565,-0.374,-0.3765,-0.3853,-0.3869,-0.3867,-0.3875,-0.4088,-0.4089,-0.409,-0.4025,0,0,0,0,0,0,-0.3079,-0.3112,-0.3135,-0.3255,-0.3292,-0.3422,-0.3453,-0.3475,-0.3528,-0.3534,-0.3655,-0.3674,-0.3742,-0.3839,-0.3862,-0.3881,-0.3882,-0.4087,-0.4089,-0.409,-0.4026,-0.4024,-0.4022,0,0,0,0,0,-0.3068,-0.311,-0.3136,-0.3163,-0.3323,-0.3423,-0.3444,-0.352,-0.3528,-0.3554,-0.3628,-0.3671,-0.3863,-0.3847,-0.3874,-0.3896,-0.4087,-0.4088,-0.409,-0.4028,-0.4024,-0.4022,0,0,0,0,0,0,-0.2991,-0.3127,-0.3157,-0.3239,-0.3318,-0.3438,-0.3473,-0.3514,-0.3594,-0.3597,-0.3689,-0.3716,-0.3796,-0.3855,-0.3835,-0.3964,-0.3979,-0.3986,-0.3923,-0.3921,-0.3918,-0.3903,-0.3889,0,0,0,0,0,-0.2982,-0.305,-0.3166,-0.3227,-0.3265,-0.3362,-0.3408,-0.3459,-0.3546,-0.3581,-0.3662,-0.3746,-0.3826,-0.3876,-0.3956,-0.4035,-0.4064,-0.4064,-0.4061,-0.4059,-0.4064,-0.4112,-0.4113,-0.4096,-0.4096,-0.4096,0,0,-0.2967,-0.305,-0.3088,-0.3213,-0.3281,-0.3351,-0.339,-0.3462,-0.3515,-0.3593,-0.368,-0.3742,-0.3843,-0.3927,-0.3968,-0.3978,-0.4075,-0.4061,-0.4058,-0.4065,-0.4113,-0.4115,-0.4116,-0.4097,-0.4097,-0.4097,0,0,-0.2975,-0.3044,-0.3102,-0.3169,-0.3271,-0.3335,-0.3349,-0.3463,-0.3507,-0.3596,-0.3656,-0.3721,-0.3856,-0.3926,-0.3979,-0.4013,-0.4056,-0.4037,-0.4025,-0.407,-0.4071,-0.4073,-0.4086,-0.4089,-0.4041,-0.4041,-0.4041,0,-0.2944,-0.305,-0.3128,-0.3196,-0.3251,-0.3322,-0.3383,-0.3445,-0.3568,-0.3604,-0.3614,-0.3785,-0.3858,-0.396,-0.3968,-0.4008,-0.4028,-0.4023,-0.4064,-0.4067,-0.407,-0.4083,-0.4088,-0.4038,-0.4038,-0.4039,-0.4039,0,-0.3007,-0.308,-0.3115,-0.323,-0.3288,-0.3352,-0.3442,-0.3492,-0.3538,-0.3601,-0.3692,-0.3781,-0.3881,-0.3909,-0.3955,-0.4018,-0.4021,-0.4046,-0.4063,-0.4067,-0.4081,-0.4087,-0.4034,-0.4035,-0.4036,-0.4037,0,0,-0.2972,-0.3129,-0.3141,-0.3194,-0.3312,-0.337,-0.3439,-0.3534,-0.3576,-0.3658,-0.3719,-0.3832,-0.3856,-0.3916,-0.3971,-0.401,-0.4033,-0.4031,-0.4035,-0.4029,-0.4108,-0.4089,-0.4094,-0.4061,-0.4063,-0.4064,-0.41,0,-0.2997,-0.312,-0.3192,-0.3287,-0.3356,-0.3425,-0.3485,-0.3565,-0.3626,-0.3695,-0.3763,-0.3842,-0.3867,-0.3904,-0.3946,-0.4021,-0.405,-0.4019,-0.4121,-0.4123,-0.4093,-0.4101,-0.4081,-0.4111,-0.4106,-0.4107,-0.4108,0,-0.3042,-0.3122,-0.3222,-0.3332,-0.3364,-0.3416,-0.351,-0.3574,-0.3667,-0.3709,-0.3775,-0.383,-0.3907,-0.3917,-0.4025,-0.4002,-0.4048,-0.4091,-0.4094,-0.4107,-0.4116,-0.4115,-0.4122,-0.4127,-0.4118,-0.4117,-0.4116,0,-0.3007,-0.314,-0.3218,-0.3261,-0.3391,-0.3426,-0.3483,-0.3574,-0.3627,-0.371,-0.3746,-0.3837,-0.3887,-0.3957,-0.4035,-0.4035,-0.4136,-0.4152,-0.4174,-0.4172,-0.4193,-0.4191,-0.4208,-0.4221,-0.4221,-0.4221,-0.4221,0,-0.3028,-0.3087,-0.3204,-0.3251,-0.332,-0.3404,-0.347,-0.3532,-0.3613,-0.3676,-0.3742,-0.38,-0.39,-0.397,-0.4033,-0.4113,-0.4135,-0.4173,-0.4188,-0.4167,-0.4162,-0.4199,-0.4199,-0.4222,-0.4222,-0.4222,-0.4221,0,-0.3001,-0.3081,-0.317,-0.3286,-0.3316,-0.3362,-0.3462,-0.3512,-0.3577,-0.3655,-0.3678,-0.378,-0.3867,-0.3952,-0.4069,-0.4111,-0.4191,-0.4212,-0.4159,-0.4168,-0.4185,-0.4183,-0.4228,-0.4238,-0.4242,-0.4242,-0.4242,0,-0.3009,-0.3056,-0.3176,-0.3221,-0.3276,-0.3349,-0.3403,-0.3487,-0.3541,-0.365,-0.3687,-0.3778,-0.3855,-0.3991,-0.4076,-0.4166,-0.4191,-0.42,-0.4205,-0.4182,-0.4192,-0.4188,-0.4194,-0.4198,-0.4197,-0.4197,-0.4197,0,-0.3015,-0.3052,-0.3126,-0.3215,-0.3277,-0.3351,-0.3428,-0.3462,-0.3562,-0.3619,-0.3707,-0.3767,-0.3886,-0.3976,-0.4076,-0.4136,-0.4184,-0.4194,-0.4204,-0.4183,-0.4151,-0.4169,-0.4153,-0.4193,-0.4193,-0.4194,-0.4194,-0.4194,-0.3007,-0.3052,-0.3143,-0.3224,-0.329,-0.336,-0.3413,-0.3483,-0.3558,-0.366,-0.3705,-0.3795,-0.3887,-0.4026,-0.4085,-0.4158,-0.417,-0.4184,-0.4188,-0.419,-0.4186,-0.4138,-0.4176,-0.4177,-0.4177,-0.4177,-0.4177,0,-0.3016,-0.3078,-0.3152,-0.3256,-0.332,-0.3357,-0.3444,-0.3496,-0.3573,-0.3654,-0.3728,-0.383,-0.3918,-0.4011,-0.4104,-0.4145,-0.4169,-0.4166,-0.4165,-0.4178,-0.4169,-0.4152,-0.4145,-0.4145,-0.4145,-0.4145,-0.4145,-0.4145,-0.3029,-0.3107,-0.3155,-0.3268,-0.3331,-0.3417,-0.3464,-0.3529,-0.3595,-0.3705,-0.3778,-0.3836,-0.3923,-0.4023,-0.4106,-0.4132,-0.4163,-0.4155,-0.4186,-0.4177,-0.4179,-0.4181,-0.4164,-0.4161,-0.4161,-0.4189,-0.4189,-0.419]},{"header":{"parameterUnit":"m.s-1","parameterCategory":1,"la1":30.2991,"la2":30.254,"lo1":-89.0895,"lo2":-89.0444,"dy":0.0017,"dx":0.0017,"nx":28,"ny":28,"refTime":"2024-08-25T21:00:00:Z","depth":0,"parameterNumber":3,"parameterNumberName":"V-component_of_WINDS"},"data":[0,0,0,0,0,0,0,0,0,0,0,0,0,0,0,0,0,0,0,0,0,0,0,0,0,0,0,0,0,0,0,0,0,0,0,0,0,0,0,0,0,0,0,0,0,0,0,0,0,0,0,0,0,0,0,0,0,0,-2.5007,-2.5007,0,-2.4975,-2.4975,-2.4974,-2.4909,-2.4908,-2.4907,-2.4905,-2.4874,-2.4874,-2.4874,0,0,0,0,0,0,0,0,0,0,0,0,0,-2.5013,-2.5013,-2.5007,-2.5007,-2.5006,-2.4975,-2.4975,-2.4974,-2.4909,-2.4908,-2.4906,-2.4905,-2.4874,-2.4874,-2.4874,0,0,0,0,0,0,0,0,0,0,0,0,0,-2.4999,-2.5013,-2.5007,-2.497,-2.4966,-2.4975,-2.4975,-2.4974,-2.491,-2.4908,-2.4906,-2.4904,-2.4873,-2.4874,-2.4875,-2.4917,0,0,-2.4876,-2.4876,0,0,0,0,0,0,0,0,-2.4999,-2.4998,-2.4976,-2.4973,-2.4969,-2.4944,-2.4965,-2.4955,-2.491,-2.4931,-2.4905,-2.4903,-2.4899,-2.4897,-2.4895,-2.4915,-2.4914,-2.4876,-2.4877,-2.4877,-2.4877,0,0,0,0,0,0,0,-2.5,-2.4999,-2.4994,-2.4976,-2.4971,-2.4955,-2.4951,-2.4963,-2.4926,-2.4929,-2.4925,-2.4922,-2.4896,-2.4895,-2.4894,-2.4914,-2.4876,-2.4877,-2.4877,-2.4877,-2.4966,-2.4968,0,0,0,0,0,0,-2.5007,-2.5001,-2.4995,-2.4993,-2.4979,-2.4957,-2.4952,-2.4954,-2.4926,-2.492,-2.4923,-2.4919,-2.4895,-2.4894,-2.4893,-2.494,-2.4877,-2.4877,-2.4878,-2.4964,-2.4966,-2.4969,0,0,0,0,0,0,-2.5007,-2.5007,-2.4997,-2.4996,-2.4993,-2.4959,-2.4961,-2.4954,-2.4953,-2.4921,-2.4915,-2.4929,-2.4893,-2.4892,-2.4911,-2.4938,-2.4878,-2.4878,-2.4961,-2.4965,-2.4967,-2.5035,0,0,0,0,0,0,-2.5008,-2.5007,-2.5023,-2.4997,-2.4993,-2.5016,-2.4963,-2.4955,-2.4954,-2.4948,-2.4925,-2.4919,-2.4892,-2.4911,-2.4912,-2.4938,-2.4879,-2.4959,-2.4963,-2.4966,-2.503,-2.504,-2.5048,0,0,0,0,0,-2.5008,-2.5044,-2.5024,-2.5024,-2.5012,-2.5017,-2.5015,-2.4983,-2.4956,-2.4972,-2.4951,-2.492,-2.4935,-2.4913,-2.4914,-2.494,-2.4957,-2.4962,-2.4966,-2.5026,-2.5038,-2.5048,0,0,0,0,0,0,-2.5075,-2.504,-2.5017,-2.5046,-2.5035,-2.5006,-2.5025,-2.4997,-2.4994,-2.4988,-2.4948,-2.4944,-2.4968,-2.4956,-2.4932,-2.4979,-2.4941,-2.4946,-2.4986,-2.4997,-2.5006,-2.5009,-2.4879,0,0,0,0,0,-2.5093,-2.51,-2.5068,-2.5096,-2.5092,-2.506,-2.5061,-2.5036,-2.5024,-2.5019,-2.5,-2.4989,-2.4991,-2.4994,-2.4994,-2.5028,-2.5022,-2.5047,-2.5056,-2.5063,-2.5068,-2.5084,-2.5095,-2.4983,-2.4983,-2.4983,0,0,-2.513,-2.5112,-2.5118,-2.5109,-2.5098,-2.5106,-2.5056,-2.5067,-2.5072,-2.5021,-2.5037,-2.5023,-2.5008,-2.5035,-2.5046,-2.5026,-2.5097,-2.5069,-2.5076,-2.5076,-2.509,-2.5101,-2.511,-2.4987,-2.4986,-2.4985,0,0,-2.5202,-2.5189,-2.521,-2.52,-2.5183,-2.5161,-2.5167,-2.5142,-2.5131,-2.5147,-2.5108,-2.5114,-2.5119,-2.511,-2.5106,-2.5174,-2.5144,-2.5175,-2.5222,-2.5239,-2.5247,-2.5255,-2.5279,-2.5288,-2.518,-2.518,-2.518,0,-2.525,-2.526,-2.5225,-2.5238,-2.5235,-2.5188,-2.5209,-2.5201,-2.5186,-2.5185,-2.5163,-2.5167,-2.5154,-2.5178,-2.5194,-2.5193,-2.5197,-2.5177,-2.5249,-2.5256,-2.5263,-2.5285,-2.5294,-2.5184,-2.5183,-2.5183,-2.5183,0,-2.5321,-2.5328,-2.5348,-2.5333,-2.5333,-2.535,-2.5317,-2.5321,-2.5297,-2.5277,-2.5294,-2.5276,-2.5272,-2.5276,-2.5253,-2.5296,-2.5284,-2.5256,-2.5216,-2.5278,-2.5298,-2.5306,-2.5189,-2.5188,-2.5187,-2.5186,0,0,-2.5434,-2.5399,-2.5407,-2.54,-2.5378,-2.5383,-2.5398,-2.5393,-2.5397,-2.5388,-2.5399,-2.5404,-2.5378,-2.5374,-2.5349,-2.5364,-2.5418,-2.5334,-2.5333,-2.535,-2.5464,-2.5485,-2.5495,-2.5398,-2.54,-2.5401,-2.5465,0,-2.55,-2.5523,-2.5492,-2.5522,-2.5528,-2.5484,-2.5497,-2.5485,-2.5467,-2.547,-2.5451,-2.5454,-2.542,-2.5417,-2.5429,-2.5409,-2.544,-2.5404,-2.5408,-2.5409,-2.5413,-2.5506,-2.5528,-2.5589,-2.5473,-2.5474,-2.5475,0,-2.5581,-2.5575,-2.5606,-2.5582,-2.5583,-2.5596,-2.5588,-2.5592,-2.5577,-2.5563,-2.5558,-2.5529,-2.5542,-2.5504,-2.5521,-2.5497,-2.5496,-2.5487,-2.5488,-2.5487,-2.5445,-2.5507,-2.5608,-2.5617,-2.5487,-2.5486,-2.5485,0,-2.566,-2.566,-2.5678,-2.5673,-2.5646,-2.5655,-2.5644,-2.5627,-2.5627,-2.562,-2.5619,-2.5615,-2.5613,-2.561,-2.558,-2.5556,-2.5601,-2.5561,-2.5589,-2.559,-2.5601,-2.5601,-2.5703,-2.5602,-2.5602,-2.5602,-2.5601,0,-2.5737,-2.5758,-2.5713,-2.5724,-2.5746,-2.5709,-2.5732,-2.5716,-2.5702,-2.5709,-2.5671,-2.5679,-2.5639,-2.5643,-2.5619,-2.5637,-2.5636,-2.5625,-2.5619,-2.5628,-2.563,-2.5627,-2.5622,-2.5604,-2.5603,-2.5603,-2.5603,0,-2.5829,-2.5799,-2.5816,-2.5789,-2.5782,-2.5799,-2.5775,-2.5784,-2.5764,-2.5774,-2.5774,-2.5742,-2.5744,-2.5714,-2.5711,-2.5695,-2.5723,-2.5709,-2.5728,-2.5723,-2.5753,-2.5751,-2.5858,-2.5869,-2.5762,-2.5763,-2.5764,0,-2.588,-2.5894,-2.5868,-2.587,-2.586,-2.5864,-2.5863,-2.5828,-2.5828,-2.5812,-2.5823,-2.5822,-2.5819,-2.5825,-2.5801,-2.5798,-2.5784,-2.5821,-2.5783,-2.5792,-2.5784,-2.5783,-2.5784,-2.5829,-2.5831,-2.5832,-2.5833,0,-2.5973,-2.5958,-2.5957,-2.5952,-2.5951,-2.5945,-2.5936,-2.594,-2.5902,-2.5904,-2.5905,-2.5903,-2.5899,-2.5898,-2.5891,-2.5879,-2.585,-2.5845,-2.5851,-2.5861,-2.5871,-2.5866,-2.5749,-2.5843,-2.5842,-2.5841,-2.584,-2.584,-2.6046,-2.6056,-2.6039,-2.604,-2.6029,-2.6022,-2.6029,-2.6009,-2.601,-2.6004,-2.5983,-2.5988,-2.5972,-2.5959,-2.595,-2.5953,-2.5935,-2.5944,-2.5946,-2.5949,-2.5955,-2.5871,-2.5952,-2.5951,-2.5951,-2.5951,-2.5951,0,-2.6137,-2.6123,-2.6124,-2.6113,-2.6113,-2.6085,-2.6074,-2.6076,-2.6081,-2.6069,-2.6067,-2.6068,-2.6067,-2.6044,-2.604,-2.6047,-2.6033,-2.6047,-2.6046,-2.6044,-2.5972,-2.5966,-2.6058,-2.6058,-2.6058,-2.6058,-2.6058,-2.6058,-2.6184,-2.6201,-2.6183,-2.6194,-2.6181,-2.6185,-2.6181,-2.6174,-2.6164,-2.6167,-2.6166,-2.615,-2.6134,-2.6128,-2.6126,-2.6119,-2.6119,-2.6137,-2.6126,-2.6059,-2.6049,-2.6039,-2.6033,-2.6138,-2.6138,-2.6197,-2.6197,-2.6198]}]]